Wind_Speed
19 26 34 42 50 58 69 73 72 72 68 65 65 67 64 57 54 52 51 50 48 47 42 40 41 43 42 37 34 30 28 26 25 25 25 25 25 26 27 28 29 31 35 40
14 18 26 33 40 48 57 67 73 75 73 70 69 70 67 60 57 54 53 50 52 47 44 44 45 46 43 39 38 37 36 34 30 30 30 28 27 26 25 25 27 29 30 35
12 15 18 23 31 38 45 52 62 70 74 73 73 74 69 65 59 56 53 51 50 47 46 47 48 46 45 44 43 42 38 38 35 32 32 31 28 28 27 26 26 27 30 31
9 12 15 18 22 25 31 39 47 55 62 68 71 73 71 66 61 59 55 52 49 47 48 49 47 48 48 47 46 41 38 38 33 30 33 30 28 28 27 26 26 28 29 28
7 9 11 14 18 22 25 29 35 41 46 53 60 69 68 63 62 59 60 53 51 51 51 49 48 47 47 46 43 40 37 33 31 33 35 32 26 27 29 30 30 29 25 22
8 11 12 13 15 19 22 25 27 33 37 43 49 57 55 54 60 61 60 54 54 54 52 50 49 47 46 44 42 40 38 35 31 32 35 33 28 30 31 30 33 30 28 27
7 10 13 13 14 17 20 22 24 28 32 36 41 45 39 45 52 55 58 58 56 55 51 48 47 44 46 44 42 40 40 41 37 35 38 35 30 34 36 36 34 32 31 29
9 9 11 13 14 16 16 18 22 22 25 29 32 33 30 39 47 52 56 55 54 55 53 50 51 48 45 42 40 41 42 41 40 38 39 37 34 37 38 37 36 35 30 33
12 9 10 11 13 13 14 16 17 21 24 27 28 27 30 34 40 48 54 60 58 55 52 52 54 49 47 44 42 43 43 42 40 40 36 36 37 40 36 33 36 37 36 34
15 13 10 10 12 12 13 13 16 19 23 26 28 30 32 32 35 41 51 56 56 47 39 42 43 48 54 46 43 42 43 38 39 40 39 36 41 35 34 32 35 39 40 42
14 15 12 10 10 12 12 12 13 17 20 24 26 27 31 30 34 38 50 54 57 54 45 42 48 48 54 50 44 44 45 45 45 43 41 38 39 37 38 36 37 41 41 42
14 14 15 14 10 10 12 12 13 15 18 21 26 27 29 28 33 40 48 57 56 54 54 54 51 48 47 52 47 49 47 45 45 43 42 39 42 43 39 44 39 45 46 44
14 13 16 17 16 12 11 12 13 16 16 18 21 21 24 29 31 34 45 51 53 53 50 50 48 43 47 49 52 51 51 46 46 43 44 46 47 52 48 43 45 43 44 47
17 15 16 18 18 16 11 14 12 14 15 17 19 22 25 29 32 33 37 43 48 46 51 49 46 46 45 49 52 50 46 43 45 45 43 44 47 48 49 53 50 48 53 55
22 20 18 18 18 17 14 13 14 12 13 16 18 20 25 30 34 32 34 40 44 49 50 46 44 42 47 48 49 43 43 41 41 40 42 45 51 53 53 51 52 55 53 54
27 23 21 19 18 17 14 12 14 14 11 13 16 18 21 25 30 28 31 38 41 47 46 39 39 44 47 46 42 41 35 33 38 39 34 30 31 35 42 47 51 49 49 52
31 28 25 23 22 19 15 13 12 13 14 12 15 20 22 25 28 28 30 35 40 45 42 42 43 39 44 34 38 27 24 25 21 25 32 39 44 45 42 39 38 39 41 46
33 33 30 29 27 25 22 18 15 13 13 16 15 14 20 25 26 26 31 35 42 46 45 42 36 28 30 26 26 22 20 20 27 37 43 39 30 29 32 35 39 43 47 51
40 37 36 34 33 30 27 23 21 19 15 15 16 14 14 18 23 25 29 35 40 41 41 34 27 30 23 28 19 19 22 26 26 20 22 26 28 31 36 40 43 48 52 54
45 43 41 39 38 36 33 28 24 24 23 20 14 14 14 14 16 22 27 36 42 44 41 36 34 29 23 18 15 19 24 15 16 22 26 28 31 35 39 44 48 52 54 53
48 49 47 44 43 42 38 34 31 28 27 23 16 16 14 15 16 17 21 29 37 47 43 37 34 22 14 14 17 16 15 18 23 24 27 29 34 37 43 46 52 52 47 43
43 49 52 50 50 48 44 41 38 35 27 22 20 23 22 20 18 17 18 21 26 33 29 26 27 16 13 18 19 21 23 23 23 25 29 32 36 41 43 48 49 42 38 37
42 45 51 54 53 53 51 48 43 36 31 29 27 28 28 27 25 25 24 23 23 22 21 25 21 16 22 24 26 25 23 23 26 29 33 34 40 41 42 43 41 38 36 35
39 43 46 50 55 57 58 54 49 45 42 39 35 33 31 31 31 28 26 26 25 25 26 22 19 23 24 22 22 23 25 29 30 33 34 39 40 38 39 38 36 34 34 34
40 39 38 46 54 58 61 59 56 54 50 46 42 38 35 33 35 34 31 29 30 31 22 22 26 25 23 23 25 26 30 32 34 35 38 40 35 35 34 33 32 32 33 34
45 43 47 47 45 53 61 65 63 60 56 52 48 44 40 38 36 39 39 38 37 30 26 27 27 27 26 27 30 31 33 35 36 39 39 32 33 32 29 28 27 25 26 27
47 51 50 48 45 44 53 63 67 65 61 57 54 51 47 45 44 44 44 43 37 31 33 33 30 29 29 30 32 33 36 39 40 37 34 30 31 28 26 28 28 32 30 31
Wind_Direction
225 223 222 222 223 224 225 226 227 229 229 230 232 236 238 238 239 237 237 238 238 238 237 238 236 236 240 246 249 252 258 261 268 270 272 270 266 263 260 258 255 253 251 252
225 226 224 223 225 226 226 227 227 229 230 232 233 236 238 236 237 235 234 235 237 237 235 233 236 237 241 244 246 249 256 260 264 268 267 268 269 269 268 264 260 255 254 254
227 226 225 224 226 226 227 229 229 230 232 232 233 235 236 237 238 238 235 235 238 238 235 234 235 238 241 244 248 252 256 260 261 263 262 262 262 261 261 262 255 250 253 256
228 230 229 226 226 227 228 228 229 231 232 233 235 237 237 237 236 238 236 234 236 238 238 237 237 239 241 244 250 254 256 260 259 258 258 256 260 264 260 258 257 255 255 255
246 240 232 229 228 227 228 227 227 230 231 233 234 236 236 235 234 233 236 233 231 233 235 238 239 240 243 245 248 251 252 251 253 255 258 253 256 258 258 260 261 255 259 261
259 250 242 238 241 238 233 229 228 229 228 228 229 233 235 233 233 230 234 232 232 233 234 236 237 239 241 244 246 249 250 246 250 254 257 255 249 249 254 256 258 261 256 257
275 262 251 245 246 242 239 236 229 228 229 228 228 231 228 225 225 225 226 228 228 231 233 235 236 236 240 241 242 243 245 246 246 247 248 252 251 252 256 256 255 257 260 259
267 276 261 246 251 248 243 237 233 229 228 227 230 229 217 222 221 217 218 221 221 228 229 230 233 233 236 239 238 238 243 246 247 246 249 253 253 253 257 262 263 256 250 258
256 266 272 253 247 249 241 236 232 225 222 221 219 216 207 215 219 216 215 215 216 221 225 230 233 229 233 233 235 236 240 243 247 245 246 252 256 257 263 261 255 253 253 260
251 258 272 270 247 250 240 235 235 230 223 225 222 215 211 204 217 217 213 213 208 206 207 208 220 224 229 230 235 237 239 240 237 239 243 243 250 252 261 254 243 248 254 256
247 251 261 273 265 246 246 238 236 236 233 227 226 223 216 206 214 210 213 216 214 207 206 217 218 220 226 227 227 236 238 236 234 234 240 249 253 254 254 253 253 252 256 263
242 247 254 260 273 254 244 246 238 237 235 230 224 220 217 211 216 212 210 213 213 213 216 217 226 223 225 226 225 231 234 237 237 241 247 247 252 255 259 258 261 258 260 262
240 246 251 255 263 269 244 245 244 239 237 234 230 219 213 212 214 220 214 219 219 223 224 224 226 224 222 223 225 230 234 234 234 245 239 249 253 255 262 264 274 283 269 271
244 246 249 252 253 258 263 240 243 240 241 233 229 221 211 208 212 216 223 220 221 223 216 216 218 222 222 221 226 230 234 241 243 238 246 252 256 264 273 278 280 284 288 289
244 244 246 246 245 246 249 246 241 241 236 233 224 224 217 211 210 211 221 220 214 217 215 214 217 222 222 224 227 229 237 242 243 248 250 255 264 270 276 281 287 288 289 291
240 241 238 237 235 236 236 241 234 239 238 232 226 221 220 217 216 212 210 212 214 216 216 213 215 220 220 221 224 235 240 243 244 255 262 265 276 284 287 285 282 285 287 288
235 236 234 229 226 228 229 233 234 231 232 234 225 222 220 222 220 223 216 211 214 209 207 205 210 216 219 226 230 222 222 233 249 283 292 292 291 288 282 281 283 286 288 286
236 233 230 225 226 228 231 229 234 233 228 231 235 227 224 223 225 228 216 209 209 206 207 213 212 214 196 205 216 237 245 281 285 287 290 288 281 276 280 285 289 292 292 292
233 233 230 225 226 227 230 229 227 229 230 227 230 232 226 221 224 223 223 215 211 215 217 220 233 220 232 243 260 269 285 289 283 269 266 267 277 287 292 294 297 299 300 298
231 231 230 227 225 226 227 227 223 224 226 228 216 221 229 223 219 219 217 220 215 223 229 232 241 250 256 258 271 285 283 254 257 259 267 278 287 293 297 302 303 300 298 297
230 229 231 230 226 224 225 226 225 225 224 223 218 222 218 218 220 218 213 211 223 228 231 237 248 238 211 262 268 245 241 247 253 266 280 288 293 301 305 302 301 301 299 298
232 230 229 232 230 224 222 223 225 226 224 217 207 215 217 211 207 208 210 211 211 220 221 229 237 182 242 249 249 245 250 259 274 282 288 291 302 304 303 305 303 302 302 303
234 232 230 231 230 226 222 221 222 224 223 220 205 203 211 213 212 208 202 201 205 201 207 213 208 221 232 229 232 243 261 272 277 282 288 298 303 303 306 310 310 308 307 306
237 237 233 230 228 226 224 221 218 218 219 219 212 206 209 209 206 210 210 207 206 206 206 207 209 218 227 237 247 259 268 275 283 289 293 300 302 303 307 313 310 306 304 304
234 235 237 234 228 226 224 222 219 219 219 218 216 211 210 211 203 206 209 209 210 215 211 212 219 227 234 245 257 265 271 278 283 288 294 300 300 302 309 314 311 306 308 309
230 232 235 236 232 227 225 222 221 220 218 218 218 216 214 214 216 216 212 214 219 217 217 222 228 239 248 259 267 271 278 282 287 294 298 296 299 306 313 320 316 320 327 332
231 229 232 235 234 233 228 224 223 221 220 220 219 218 218 218 220 225 225 225 222 224 232 238 244 254 264 268 273 280 284 288 291 291 291 284 294 303 310 319 317 317 326 337
Height
10683 10686 10690 10696 10703 10710 10719 10728 10738 10746 10755 10763 10768 10769 10777 10794 10803 10813 10818 10825 10831 10838 10848 10854 10857 10859 10864 10869 10872 10873 10875 10876 10878 10879 10880 10882 10883 10885 10887 10889 10890 10892 10894 10897
10681 10682 10685 10690 10695 10700 10707 10715 10724 10732 10741 10750 10756 10758 10768 10782 10790 10799 10807 10815 10819 10830 10839 10844 10847 10851 10857 10862 10863 10865 10867 10870 10873 10873 10875 10877 10879 10879 10880 10881 10883 10883 10885 10885
10678 10680 10682 10685 10688 10692 10698 10705 10712 10718 10727 10736 10741 10745 10757 10768 10782 10789 10799 10807 10812 10821 10828 10833 10839 10844 10849 10852 10853 10856 10860 10862 10865 10867 10869 10871 10873 10873 10873 10874 10873 10873 10874 10876
10676 10677 10679 10681 10684 10687 10691 10696 10701 10706 10715 10723 10730 10734 10746 10759 10773 10779 10789 10798 10804 10811 10818 10823 10829 10834 10838 10843 10845 10849 10853 10855 10857 10859 10860 10865 10867 10867 10867 10866 10864 10864 10866 10868
10674 10674 10675 10678 10680 10682 10685 10689 10693 10698 10705 10711 10718 10719 10731 10749 10760 10770 10773 10785 10793 10798 10804 10812 10818 10824 10829 10833 10837 10841 10844 10847 10849 10849 10850 10856 10860 10857 10857 10857 10856 10856 10859 10861
10672 10672 10673 10675 10676 10678 10680 10684 10688 10691 10695 10699 10703 10707 10721 10738 10745 10755 10761 10774 10781 10786 10792 10800 10806 10815 10819 10824 10829 10833 10836 10839 10840 10841 10840 10845 10850 10848 10848 10849 10848 10850 10852 10853
10670 10670 10670 10672 10673 10674 10676 10678 10682 10685 10688 10691 10694 10699 10715 10722 10728 10739 10752 10760 10767 10775 10784 10791 10797 10806 10808 10813 10820 10825 10826 10829 10832 10832 10831 10836 10841 10840 10839 10840 10841 10843 10843 10843
10667 10667 10667 10668 10669 10670 10672 10674 10676 10679 10682 10685 10689 10696 10707 10710 10716 10728 10736 10748 10757 10763 10772 10780 10783 10793 10798 10804 10810 10813 10815 10820 10822 10824 10824 10829 10832 10832 10833 10833 10834 10834 10835 10835
10664 10664 10664 10664 10665 10666 10668 10669 10671 10674 10676 10679 10683 10691 10696 10702 10708 10715 10724 10731 10744 10753 10760 10766 10773 10781 10788 10794 10798 10802 10806 10810 10813 10815 10819 10822 10822 10823 10825 10827 10824 10827 10827 10826
10660 10660 10661 10660 10661 10662 10663 10665 10666 10669 10671 10675 10679 10684 10688 10695 10701 10707 10714 10723 10731 10743 10749 10756 10763 10771 10778 10785 10788 10793 10798 10802 10804 10807 10811 10812 10813 10816 10816 10817 10818 10818 10818 10818
10656 10656 10657 10657 10657 10659 10660 10662 10663 10665 10667 10671 10675 10679 10685 10691 10695 10699 10707 10714 10721 10729 10739 10747 10754 10761 10769 10776 10780 10784 10788 10791 10795 10799 10802 10803 10805 10806 10808 10810 10811 10810 10811 10810
10652 10653 10653 10654 10654 10655 10657 10658 10660 10661 10663 10666 10669 10674 10679 10685 10688 10694 10700 10705 10713 10722 10727 10734 10743 10753 10761 10766 10771 10774 10780 10783 10786 10791 10793 10794 10795 10797 10799 10801 10802 10803 10803 10803
10647 10649 10649 10649 10650 10652 10653 10655 10655 10657 10659 10661 10664 10670 10673 10679 10684 10690 10694 10697 10704 10712 10721 10728 10736 10744 10751 10757 10761 10765 10771 10776 10780 10783 10784 10785 10786 10787 10790 10792 10794 10794 10793 10793
10643 10645 10645 10645 10647 10648 10649 10650 10652 10653 10655 10657 10660 10664 10669 10673 10676 10683 10690 10696 10702 10710 10715 10722 10729 10735 10741 10748 10752 10759 10767 10771 10772 10774 10775 10778 10778 10779 10779 10778 10780 10781 10781 10780
10637 10639 10641 10641 10642 10644 10646 10646 10648 10649 10651 10653 10655 10659 10664 10668 10672 10676 10684 10691 10697 10704 10710 10715 10722 10728 10735 10741 10748 10755 10759 10762 10766 10767 10769 10770 10771 10771 10770 10768 10768 10767 10765 10763
10632 10633 10635 10637 10639 10641 10643 10644 10645 10646 10647 10650 10652 10655 10659 10664 10668 10672 10678 10685 10691 10699 10705 10711 10718 10724 10730 10736 10744 10747 10752 10757 10760 10761 10763 10764 10761 10759 10759 10758 10756 10755 10753 10750
10625 10628 10630 10633 10635 10637 10640 10642 10643 10644 10645 10647 10649 10651 10655 10659 10663 10669 10675 10681 10687 10694 10701 10708 10713 10718 10725 10734 10739 10741 10746 10749 10751 10753 10754 10753 10751 10750 10749 10747 10746 10744 10743 10740
10617 10621 10624 10628 10630 10633 10635 10638 10640 10641 10644 10645 10646 10650 10653 10656 10661 10665 10671 10677 10684 10691 10698 10703 10709 10717 10725 10730 10730 10734 10739 10741 10744 10745 10743 10742 10741 10740 10740 10738 10736 10733 10728 10723
10608 10612 10617 10621 10624 10627 10631 10634 10636 10639 10641 10643 10645 10647 10650 10653 10657 10662 10667 10674 10680 10687 10693 10700 10707 10714 10718 10719 10722 10726 10728 10732 10733 10734 10734 10735 10734 10733 10730 10726 10722 10718 10712 10706
10596 10602 10607 10612 10617 10620 10625 10629 10632 10635 10637 10640 10644 10646 10648 10652 10655 10659 10664 10670 10679 10684 10689 10696 10703 10705 10709 10712 10715 10719 10722 10724 10726 10728 10727 10727 10725 10722 10719 10715 10709 10702 10696 10690
10584 10591 10597 10602 10607 10613 10618 10623 10626 10630 10634 10639 10645 10646 10648 10650 10653 10657 10661 10666 10673 10678 10684 10692 10696 10697 10702 10708 10710 10715 10717 10718 10720 10721 10720 10718 10715 10711 10707 10701 10695 10688 10682 10676
10571 10577 10584 10591 10596 10603 10609 10614 10620 10624 10630 10637 10641 10642 10645 10648 10650 10654 10657 10662 10667 10672 10678 10685 10688 10691 10698 10701 10706 10710 10710 10711 10713 10711 10710 10707 10704 10701 10695 10689 10682 10676 10671 10666
10559 10564 10571 10577 10584 10593 10599 10604 10612 10621 10625 10628 10632 10635 10639 10642 10647 10651 10655 10659 10663 10669 10675 10679 10682 10688 10693 10697 10700 10702 10704 10704 10704 10703 10700 10698 10694 10690 10685 10679 10671 10665 10662 10658
10547 10552 10557 10563 10570 10578 10585 10594 10602 10609 10613 10617 10623 10628 10633 10636 10642 10647 10651 10655 10660 10664 10668 10674 10681 10684 10687 10690 10692 10694 10695 10695 10694 10692 10691 10688 10685 10680 10675 10670 10664 10659 10655 10651
10537 10541 10545 10547 10554 10563 10572 10582 10590 10594 10601 10609 10615 10621 10627 10632 10638 10642 10647 10651 10656 10659 10667 10672 10674 10678 10682 10684 10686 10687 10687 10687 10686 10685 10682 10678 10675 10671 10666 10661 10657 10652 10648 10643
10524 10529 10530 10533 10542 10550 10557 10566 10575 10582 10591 10599 10606 10614 10620 10626 10631 10634 10639 10644 10648 10656 10662 10664 10667 10670 10674 10676 10677 10678 10678 10677 10675 10673 10670 10667 10664 10661 10657 10653 10649 10644 10639 10635
10508 10507 10514 10524 10532 10538 10542 10550 10560 10570 10580 10589 10596 10603 10611 10616 10621 10624 10627 10632 10643 10651 10652 10654 10660 10663 10665 10666 10667 10667 10667 10665 10664 10661 10659 10658 10656 10654 10650 10646 10641 10636 10632 10627